Hourly Data Report for October 08, 2014

All times are specified in Local Standard Time (LST). Add 1 hour to adjust for Daylight Saving Time where and when it is observed.

SAINT JOHN A
NEW BRUNSWICK

45°18'58.000" N
65°53'24.000" W
108.80 m
8104901
71609
YSJ

Download Data

Hourly Data (October 2014)
Hourly Data Report for October 8, 2014
Temp Definition
°C
Dew Point Temp Definition
°C
Rel Hum Definition
%
Wind Dir Definition
10's deg

Wind Spd Definition
km/h
Visibility Definition
km
Stn Press Definition
kPa
Hmdx Definition


Wind Chill Definition


Weather Definition


TIME
00:00 Legend Double Dagger 13.2 11.5 89 15 21 24.1 100.78     LegendNANA
01:00 Legend Double Dagger 13.0 11.4 90 15 13 24.1 100.77     LegendNANA
02:00 Legend Double Dagger 12.7 11.3 91 13 19 24.1 100.71     Mostly Cloudy
03:00 Legend Double Dagger 12.9 11.5 91 13 13 24.1 100.66     LegendNANA
04:00 Legend Double Dagger 12.9 11.3 90 13 16 24.1 100.57     LegendNANA
05:00 Legend Double Dagger 12.9 11.7 92 16 14 24.1 100.48     Mostly Cloudy
06:00 Legend Double Dagger 12.7 11.6 93 11 17 24.1 100.41     LegendNANA
07:00 Legend Double Dagger 12.8 11.4 91 11 16 24.1 100.33     LegendNANA
08:00 Legend Double Dagger 13.3 11.2 87 12 22 24.1 100.27     Cloudy
09:00 Legend Double Dagger 13.9 11.5 85 11 24 24.1 100.19     Rain Showers
10:00 Legend Double Dagger 16.6 9.8 64 12 28 24.1 100.06     LegendNANA
11:00 Legend Double Dagger 15.8 10.8 72 12 25 24.1 99.92     Mostly Cloudy
12:00 Legend Double Dagger 16.1 12.5 79 13 25 24.1 99.77     LegendNANA
13:00 Legend Double Dagger 14.5 13.7 95 12 12 16.1 99.63     Rain Showers
14:00 Legend Double Dagger 16.2 15.6 96 15 26 12.9 99.55     Rain Showers
15:00 Legend Double Dagger 16.4 15.9 97 15 23 24.1 99.44     LegendNANA
16:00 Legend Double Dagger 16.8 16.2 96 17 24 12.9 99.32     Rain Showers
17:00 Legend Double Dagger 16.7 16.1 96 19 34 19.3 99.26     Cloudy
18:00 Legend Double Dagger 15.6 15.1 97 21 35 16.1 99.25     LegendNANA
19:00 Legend Double Dagger 14.9 14.9 100 21 27 4.8 99.27     Fog
20:00 Legend Double Dagger 14.8 14.8 100 21 27 4.8 99.30     Fog
21:00 Legend Double Dagger 13.9 13.9 100 23 26 0.8 99.34     Fog
22:00 Legend Double Dagger 13.5 13.5 100 22 14 1.0 99.38     Fog
23:00 Legend Double Dagger 13.4 13.4 100 21 9 1.6 99.39     Fog

Notes on Data Quality.

Legend

  • E = Estimated
  • M = Missing
  • NA = Not Available
  • ‡ = Partner data that is not subject to review by the National Climate Archives
Date modified: